Location: Dittelbrunn
(50.0738°N, 10.2196°E)
Time: 15:18:22
(UTC+00:00)

ATLAS 2AS CENTAUR R/B - Pass Details

Date: 18 September 2020
Orbit: 939 x 1273 km, 63.7° (Epoch: 26 October)

Event Time Altitude Azimuth Distance (km) Brightness Sun altitude
Rises 19:13:32 0° 175° (S) 4,186 5.5 -17.6°
Reaches altitude 10° 19:16:47 10° 163° (SSE) 3,244 4.8 -18.1°
Enters shadow 19:16:57 11° 163° (SSE) 3,202 4.8 -18.1°
Exits shadow 19:24:45 25° 91° (E) 2,324 3.9 -19.2°
Drops below altitude 10° 19:29:23 10° 57° (ENE) 3,250 4.9 -19.9°
Sets 19:32:37 0° 46° (NE) 4,195 5.6 -20.3°
